Regional Weather Roundup
Issued by NWS Upton, NY

Current Version | Previous Version | Graphics & Text | Print | Product List | Glossary Off
Versions: 1 2 3 4 5 6 7 8 9 10 11 12 13 14 15 16 17 18 19 20 21 22 23 24 25 26 27 28 29 30 31 32 33 34 35 36 37 38 39 40 41 42 43 44 45 46 47 48 49 50

912
ASUS41 KOKX 031208
RWROKX

REGIONAL WEATHER ROUNDUP
NATIONAL WEATHER SERVICE NEW YORK NY
700 AM EST SAT DEC 03 2016

NOTE: "FAIR" INDICATES FEW OR NO CLOUDS BELOW 12,000 FEET WITH NO
SIGNIFICANT WEATHER AND/OR OBSTRUCTIONS TO VISIBILITY.

NYZ071-072-176-178-NJZ106-104-031300-
NEW YORK CITY METRO AREA

CITY           SKY/WX    TMP DP  RH WIND       PRES   REMARKS
Central Park   MOCLDY    42  25  50 NW6       30.01R
Wall St Helipt MOSUNNY   43  29  57 VRB3      30.00R
Bronx Bot Gard NOT AVBL
LaGuardia APRT PTCLDY    44  28  53 NW17      29.98R
Kennedy INTL   PTCLDY    42  25  50 NW15      29.99R
Breezy Point     N/A     41 N/A N/A NW15G22     N/A
Newark/Liberty PTCLDY    41  27  57 W21       29.99R
Teterboro      CLEAR     42  25  50 NW17G26   29.97R
$$

NYZ177-179-078>081-031300-
LONG ISLAND NEW YORK

CITY           SKY/WX    TMP DP  RH WIND       PRES   REMARKS
Jones Beach      N/A     41 N/A N/A NW18G25     N/A
Matinecock PT    N/A     43 N/A N/A NW24        N/A
Farmingdale    CLOUDY    41  27  57 NW13G22   29.96
MacArthur/ISP  PTCLDY    40  28  62 W14       29.94R WCI  32
Shirley        CLEAR     41  29  62 NW14G24   29.94R
Westhampton    MOCLDY    38  28  67 W8        29.95  WCI  32
Southampton    NOT AVBL
Bridgehampton  NOT AVBL
East Hampton     N/A     41  28  61 NW9G17    29.90R
Montauk          N/A     43  30  60 NW17G29   29.89R
$$

NYZ052-065-067-031300-
HUDSON VALLEY

CITY           SKY/WX    TMP DP  RH WIND       PRES   REMARKS
White Plains   MOCLDY    40  27  59 NW14      29.95R WCI  32
Newburgh       PTCLDY    37  30  75 NW17G31   29.95R WCI  28
Montgomery     PTCLDY    40  27  59 W15G25    29.95R WCI  32
Poughkeepsie   CLOUDY    39  27  62 W5        29.95
Albany         MOCLDY    37  26  64 NW10G24   29.95R WCI  30
$$

NJZ001-105-106-008-010-013-015-019>022-104-031300-
NEW JERSEY

CITY           SKY/WX    TMP DP  RH WIND       PRES   REMARKS
Newark/Liberty PTCLDY    41  27  57 W21       29.99R
Teterboro      CLEAR     42  25  50 NW17G26   29.97R
Caldwell       PTCLDY    42  25  50 NW17G26   30.00
Somerville     CLOUDY    43  27  53 NW13G20   30.02
Linden           N/A     41  27  56 NW21G33   30.01R
Sussex         CLOUDY    40  27  59 VRB5      30.00
Andover          N/A     39  26  59 N13G22    30.01R WCI  31
Trenton        PTCLDY    42  27  55 NW14G20   30.04
Millville      CLOUDY    42  32  67 W9        30.08R
Atlantic City  CLOUDY    43  29  57 W12       30.06R
Wrightstown    PTCLDY    41  28  61 NW13      30.03R
Toms River     CLEAR     40  29  64 W14       30.04R WCI  32
Belmar         CLEAR    N/A N/A N/A W15G23    30.01R
$$

PAZ047>061-062-071-031300-
EASTERN PENNSYLVANIA

CITY           SKY/WX    TMP DP  RH WIND       PRES   REMARKS
Philadelphia   MOCLDY    44  31  60 NW18G26   30.09R
Allentown      CLOUDY    42  27  55 NW7       30.06R
Scranton       CLOUDY    38  29  70 NW8       30.04R WCI  32
$$

CTZ002-004>006-009-010-012-RIZ004-006-007-MAZ004-011-015-031300-
SOUTHERN NEW ENGLAND
 IN CT

CITY           SKY/WX    TMP DP  RH WIND       PRES   REMARKS
Bradley INTL   MOCLDY    38  25  59 N15G22    29.90  WCI  29
Hartford       MOCLDY    39  27  62 NW10      29.92R WCI  32
Danbury        PTCLDY    39  26  59 W9        29.94  WCI  33
Wtrbury/Oxford MOCLDY    37  27  65 NW5       29.92R WCI  34
Bridgeport     CLEAR     41  28  60 W10       29.94R
Meriden        CLEAR     40  27  59 NW6       29.92R
New Haven      PTCLDY    41  30  65 NW8       29.92R
Chester        CLOUDY    39  27  60 NW9G17    29.90R WCI  33
Groton         PTCLDY    43  28  55 NW15G29   29.87R
Wilimantic     MOCLDY    40  27  59 NW10      29.89R WCI  33

 IN RI

CITY           SKY/WX    TMP DP  RH WIND       PRES   REMARKS
Providence     MOCLDY    39  25  57 W18G26    29.84  WCI  30
Block Island   PTCLDY    41  28  60 NW18G35   29.86
Westerly       PTCLDY    40  24  53 NW10G29   29.86S WCI  33
 IN MA

CITY           SKY/WX    TMP DP  RH WIND       PRES   REMARKS
Boston         MOCLDY    38  27  64 W16       29.81R WCI  29
Worcester      CLEAR     34  24  67 W10       29.81R WCI  26
Westfield      MOCLDY    38  26  62 NW14G22   29.88R WCI  30
Provincetown   PTCLDY    41  30  65 NW24G32   29.79
Nantucket      CLEAR     40  27  59 NW22G29   29.80R WCI  30
$$

ANZ330-335-338-340-345-350-353-355-031300-
COASTAL MARINE OBSERVATIONS


STATION/POSITION TIME  SKY/WX   TEMP    WIND        PRES    VSBY  WAVE
                                AIR SEA DIR/SP/G                  HT/PER
                 (UTC)          (F)     (DEG/KT/KT) (MB)    (MI)  (FT/S)
NY HARB ENTRANCE 1050            45 54  300/ 29/ 37 1013.8          4/ 4
20 S FIRE ISLAND 1150            45 54  310/ 27/ 33 1013.9          7/ 6
GREAT SOUTH BAY  1130            42 45                N/A
23 SSW MONTAUK P 1150            45 56  290/ 23/ 27 1012.3          7/ 7
15 E BARNEGAT LI 1130               54                N/A           5/ 4
HUDSON CANYON    1050            48 59              1012.7         10/ 8
KINGS POINT      1148            43 48              1015.1
EXECUTION ROCKS  1145            43     290/ 14/ 21   N/A
CENTRAL LI SOUND 1145            44 51  300/ 17/ 23   N/A           3/ 5
EASTERN LI SOUND NOT AVBL
ROBBINS REEF     1148            42     310/ 22/ 25 1015.4
$$


>>>>>>>>>>>>>>>>>>>>>>>>>>>> KEY <<<<<<<<<<<<<<<<<<<<<<<<<<<
>                                                          <
>     SKY/WX - Sky Condition/Present Weather               <
>     TMP    - Temperature in Fahrenheit                   <
>     DP     - Dew Point in Fahrenheit                     <
>     RH     - Relative Humidity in Percent                <
>     WIND   - Direction (from) and Speed in MPH           <
>     PRES   - Mean Sea Level Pressure (inches of Hg)      <
>     WCI    - Wind Chill Index                            <
>     VSB    - VISIBILITY IN MILES                         <
>     HX     - HEAT INDEX                                  <
>     TC     - TEMPERATURE IN CELSIUS                      <
>     VRB    - VARIABLE WIND DIRECTION                     <
>                                                          <
>>>>>>>>>>>>>>>>>>>>>>>>>>>> KEY <<<<<<<<<<<<<<<<<<<<<<<<<<<




USA.gov is the U.S. government's official web portal to all federal, state and local government web resources and services.